Погода в Семено-Макаренском

Россия / Республика Адыгея     44°55′06″N   40°14′43″E
темп.,
°C
ветер,
м/с
пор.,
м/с
влажн.,
%
обл.,
%
осадки,
мм/ч
давл.,
гПа
погр.,
м
7 мая, пт
пт700:00+13зюз3483100 0.0 101251
03:00+10зюз359113 0.0 101499
06:00+9зюз34775 0.0 101568
09:00+15зюз48621 0.0 1017523
12:00+19зсз67551 0.0 10171125
15:00+20зсз57555 0.0 10171370
18:00+19зсз237212 0.1 1017132
21:00+13ю117999 0.1 101811
8 мая, сб
сб800:00+12юв22865 0.0 101813
03:00+11юв349065 0.0 101652
06:00+12юв24908 0.0 101680
09:00+18вюв2372100 0.0 1015441
12:00+22в2261100 0.0 1013798
15:00+23ююз1153100 0.0 10121112
18:00+22ю116891 0.0 101119
21:00+18вюв34697 0.0 101054
9 мая, вс
вс900:00+14зюз3388100 0.2 101037
03:00+13з61374100 0.2 1010345
06:00+12зсз4993100 0.4 1011402
09:00+10зсз81296100 2.4 1013733
12:00+9зсз61194100 4.6 1018807
15:00+9сз488998 6.3 1020810
18:00+10зсз698481 0.7 1022642
21:00+7зюз489492 1.1 1024194
10 мая, пн
пн1000:00+6юз499542 0.2 1024182
03:00+5зюз4995100 0.6 1024203
06:00+5зюз379599 0.2 1024180
09:00+11з6873100 0.8 10221079
12:00+12з81060100 0.3 10211788
15:00+10з71175100 1.6 10211239
18:00+8з8127991 0.3 1021757
21:00+7зюз81383100 0.6 10191182
11 мая, вт
вт1100:00+7юз101691100 1.7 10181138
03:00+7юз111791100 3.7 10171114
06:00+7юз111890100 3.3 10161084
09:00+8зюз122090100 4.4 1015994
12:00+8зюз122089100 2.8 1014986
15:00+9з91888100 4.8 1015987
18:00+9з7129695 3.4 1017608
21:00+8зюз51195100 3.5 1017398